When you browse on this site, cookies collect data to enhance your experience and personalize the content and advertising you see.
Visit our Privacy Policy to learn more. By continuing to use the site, you agree to this use of cookies and data.
  • In Hungary
  • List of Countries
  • For 7 days
  • Water Temperature
  • Weather Map
  • News
  • Weather Widgets
  • user-avatar
    Login

    Hourly Weather Mariec

    Today, 18 October, Friday

    Time Temperature Precipitation Wind Pressure Humidity
    00:00 +8°C° 0.2 mm 2 mps 745 mmHg 97%
    01:00 +8°C° 0.3 mm 2 mps 745 mmHg 97%
    02:00 +9°C° 0.3 mm 1 mps 745 mmHg 98%
    03:00 +9°C° 0.3 mm 1 mps 745 mmHg 98%
    04:00 +8°C° 0.1 mm 2 mps 745 mmHg 98%
    05:00 +8°C° 0.1 mm 2 mps 744 mmHg 98%
    06:00 +8°C° 0.1 mm 2 mps 744 mmHg 97%
    07:00 +7°C° 0.2 mm 2 mps 744 mmHg 97%
    08:00 +7°C° 0.2 mm 2 mps 744 mmHg 96%
    09:00 +6°C° 0.2 mm 2 mps 744 mmHg 96%
    10:00 +5°C° 0.7 mm 3 mps 744 mmHg 96%
    11:00 +5°C° 0.7 mm 3 mps 743 mmHg 96%
    12:00 +5°C° 0.7 mm 3 mps 743 mmHg 96%
    13:00 +4°C° 1.7 mm 4 mps 743 mmHg 96%
    14:00 +4°C° 1.7 mm 4 mps 744 mmHg 96%
    15:00 +3°C° 1.7 mm 5 mps 744 mmHg 95%
    16:00 +2°C° 0.2 mm 5 mps 744 mmHg 94%
    17:00 +1°C° 0.2 mm 5 mps 745 mmHg 93%
    18:00 +1°C° 0.2 mm 6 mps 745 mmHg 92%
    19:00 +1°C° 0 mm 6 mps 746 mmHg 91%
    20:00 -1°C° 0 mm 6 mps 746 mmHg 90%
    21:00 -1°C° 0 mm 6 mps 747 mmHg 89%
    22:00 0°C° 0 mm 5 mps 747 mmHg 88%
    23:00 0°C° 0 mm 5 mps 748 mmHg 87%

    Tomorrow, 19 October, Saturday

    Time Temperature Precipitation Wind Pressure Humidity
    00:00 0°C° 0 mm 5 mps 748 mmHg 86%
    01:00 -1°C° 0 mm 5 mps 749 mmHg 86%
    02:00 -1°C° 0 mm 5 mps 749 mmHg 86%
    03:00 -1°C° 0 mm 4 mps 750 mmHg 86%
    04:00 -2°C° 0 mm 4 mps 750 mmHg 87%
    05:00 -2°C° 0 mm 4 mps 750 mmHg 88%
    06:00 -3°C° 0 mm 4 mps 750 mmHg 89%
    07:00 -3°C° 0 mm 4 mps 751 mmHg 88%
    08:00 -2°C° 0 mm 4 mps 752 mmHg 87%
    09:00 -1°C° 0 mm 3 mps 752 mmHg 86%
    10:00 0°C° 0 mm 3 mps 753 mmHg 84%
    11:00 0°C° 0 mm 3 mps 753 mmHg 82%
    12:00 +1°C° 0 mm 3 mps 753 mmHg 80%
    13:00 +1°C° 0 mm 3 mps 753 mmHg 80%
    14:00 +1°C° 0 mm 3 mps 753 mmHg 79%
    15:00 +1°C° 0 mm 3 mps 753 mmHg 79%
    16:00 +2°C° 0 mm 2 mps 753 mmHg 80%
    17:00 +1°C° 0 mm 2 mps 754 mmHg 81%
    18:00 +1°C° 0 mm 2 mps 754 mmHg 82%
    19:00 +2°C° 0 mm 1 mps 754 mmHg 83%
    20:00 +2°C° 0 mm 1 mps 754 mmHg 84%
    21:00 +1°C° 0 mm 1 mps 754 mmHg 85%
    22:00 +1°C° 0 mm 1 mps 754 mmHg 86%
    23:00 +1°C° 0 mm 1 mps 754 mmHg 87%

    Day after tomorrow, 20 October, Sunday

    Time Temperature Precipitation Wind Pressure Humidity
    00:00 0°C° 0 mm 1 mps 754 mmHg 88%
    01:00 0°C° 0 mm 1 mps 754 mmHg 88%
    02:00 0°C° 0 mm 1 mps 754 mmHg 88%
    03:00 0°C° 0 mm 1 mps 754 mmHg 88%
    04:00 0°C° 0 mm 1 mps 754 mmHg 88%
    05:00 0°C° 0 mm 1 mps 754 mmHg 88%
    06:00 0°C° 0 mm 1 mps 754 mmHg 88%
    07:00 -1°C° 0 mm 2 mps 754 mmHg 85%
    08:00 +1°C° 0 mm 2 mps 754 mmHg 82%
    09:00 +2°C° 0 mm 2 mps 754 mmHg 79%
    10:00 +3°C° 0 mm 2 mps 754 mmHg 79%
    11:00 +3°C° 0 mm 3 mps 754 mmHg 79%
    12:00 +4°C° 0 mm 3 mps 754 mmHg 79%
    13:00 +4°C° 0 mm 3 mps 754 mmHg 81%
    14:00 +4°C° 0 mm 4 mps 753 mmHg 83%
    15:00 +4°C° 0 mm 4 mps 753 mmHg 85%
    16:00 +4°C° 0 mm 4 mps 753 mmHg 87%
    17:00 +3°C° 0 mm 5 mps 753 mmHg 89%
    18:00 +3°C° 0 mm 5 mps 752 mmHg 91%
    19:00 +3°C° 0 mm 5 mps 752 mmHg 91%
    20:00 +3°C° 0 mm 5 mps 752 mmHg 91%
    21:00 +5°C° 0 mm 5 mps 752 mmHg 92%
    22:00 +5°C° 0 mm 5 mps 752 mmHg 92%
    23:00 +5°C° 0 mm 5 mps 751 mmHg 92%

    21 October, Monday

    Time Temperature Precipitation Wind Pressure Humidity
    00:00 +5°C° 0 mm 5 mps 751 mmHg 92%
    01:00 +5°C° 0.1 mm 5 mps 751 mmHg 93%
    02:00 +6°C° 0.1 mm 5 mps 751 mmHg 93%
    03:00 +6°C° 0.1 mm 5 mps 751 mmHg 93%
    04:00 +6°C° 0.3 mm 5 mps 750 mmHg 94%
    05:00 +6°C° 0.3 mm 5 mps 750 mmHg 94%
    06:00 +6°C° 0.3 mm 5 mps 750 mmHg 95%
    07:00 +6°C° 0.3 mm 4 mps 750 mmHg 95%
    08:00 +6°C° 0.3 mm 4 mps 750 mmHg 95%
    09:00 +6°C° 0.3 mm 4 mps 750 mmHg 95%
    10:00 +7°C° 0.1 mm 4 mps 750 mmHg 93%
    11:00 +7°C° 0.1 mm 4 mps 750 mmHg 91%
    12:00 +8°C° 0.1 mm 4 mps 750 mmHg 89%
    13:00 +8°C° 0 mm 4 mps 750 mmHg 89%
    14:00 +8°C° 0 mm 4 mps 750 mmHg 89%
    15:00 +10°C° 0 mm 4 mps 750 mmHg 88%
    16:00 +8°C° 0 mm 4 mps 749 mmHg 89%
    17:00 +8°C° 0 mm 4 mps 749 mmHg 90%
    18:00 +8°C° 0 mm 4 mps 749 mmHg 91%
    19:00 +8°C° 0 mm 5 mps 748 mmHg 90%
    20:00 +9°C° 0 mm 5 mps 748 mmHg 90%
    21:00 +9°C° 0 mm 6 mps 747 mmHg 89%
    22:00 +9°C° 0 mm 6 mps 747 mmHg 89%
    23:00 +9°C° 0 mm 6 mps 746 mmHg 89%

    22 October, Tuesday

    Time Temperature Precipitation Wind Pressure Humidity
    00:00 +8°C° 0 mm 6 mps 746 mmHg 89%
    01:00 +8°C° 0 mm 6 mps 745 mmHg 89%
    02:00 +8°C° 0 mm 6 mps 745 mmHg 90%
    03:00 +8°C° 0 mm 6 mps 744 mmHg 91%
    04:00 +8°C° 0 mm 7 mps 743 mmHg 91%
    05:00 +8°C° 0 mm 7 mps 743 mmHg 91%
    06:00 +8°C° 0 mm 7 mps 742 mmHg 91%
    07:00 +7°C° 0 mm 8 mps 741 mmHg 88%
    08:00 +9°C° 0 mm 8 mps 741 mmHg 84%
    09:00 +8°C° 0 mm 9 mps 740 mmHg 81%
    10:00 +8°C° 0.3 mm 9 mps 739 mmHg 80%
    11:00 +10°C° 0.3 mm 9 mps 738 mmHg 79%
    12:00 +10°C° 0.3 mm 9 mps 738 mmHg 78%
    13:00 +10°C° 1.4 mm 8 mps 738 mmHg 82%
    14:00 +10°C° 1.4 mm 8 mps 737 mmHg 86%
    15:00 +9°C° 1.4 mm 7 mps 737 mmHg 90%
    16:00 +9°C° 0.3 mm 6 mps 738 mmHg 89%
    17:00 +9°C° 0.3 mm 5 mps 738 mmHg 88%
    18:00 +8°C° 0.3 mm 4 mps 738 mmHg 87%
    19:00 +8°C° 0 mm 4 mps 739 mmHg 87%
    20:00 +7°C° 0 mm 5 mps 739 mmHg 88%
    21:00 +7°C° 0 mm 5 mps 740 mmHg 88%
    22:00 +6°C° 0 mm 5 mps 740 mmHg 87%
    23:00 +6°C° 0 mm 5 mps 741 mmHg 85%

    23 October, Wednesday

    Time Temperature Precipitation Wind Pressure Humidity
    00:00 +4°C° 0 mm 6 mps 741 mmHg 83%
    01:00 +3°C° 0 mm 6 mps 742 mmHg 83%
    02:00 +3°C° 0 mm 6 mps 742 mmHg 83%
    03:00 +2°C° 0 mm 6 mps 743 mmHg 82%
    04:00 +1°C° 0 mm 6 mps 744 mmHg 81%
    05:00 0°C° 0 mm 5 mps 745 mmHg 79%
    06:00 -1°C° 0 mm 5 mps 746 mmHg 77%
    07:00 0°C° 0 mm 5 mps 747 mmHg 75%
    08:00 0°C° 0 mm 5 mps 748 mmHg 73%
    09:00 0°C° 0 mm 5 mps 748 mmHg 71%
    10:00 +1°C° 0 mm 4 mps 749 mmHg 68%
    11:00 +1°C° 0 mm 4 mps 749 mmHg 65%
    12:00 +3°C° 0 mm 4 mps 750 mmHg 62%
    13:00 +3°C° 0 mm 4 mps 750 mmHg 63%
    14:00 +3°C° 0 mm 4 mps 750 mmHg 64%
    15:00 +3°C° 0 mm 4 mps 750 mmHg 66%
    16:00 +1°C° 0 mm 4 mps 750 mmHg 69%
    17:00 +1°C° 0 mm 4 mps 750 mmHg 72%
    18:00 0°C° 0 mm 4 mps 750 mmHg 76%
    19:00 0°C° 0 mm 4 mps 750 mmHg 76%
    20:00 0°C° 0 mm 4 mps 750 mmHg 76%
    21:00 0°C° 0 mm 4 mps 749 mmHg 76%
    22:00 0°C° 0 mm 4 mps 749 mmHg 77%
    23:00 0°C° 0 mm 5 mps 749 mmHg 78%
    Show more